Regional Weather Roundup
Issued by NWS

Home | Current Version | Previous Version | Text Only | Print | Product List | Glossary On
Versions: 1 2 3 4 5 6 7 8 9 10 11 12 13 14 15 16 17 18 19 20 21 22 23 24 25 26 27
000
ASUS45 KBOU 150410
RWRCO

WEATHER ROUNDUP FOR COLORADO
NATIONAL WEATHER SERVICE DENVER/BOULDER CO
900 PM MST THU DEC 14 2017

NOTE: "FAIR" INDICATES FEW OR NO CLOUDS BELOW 12000 FEET WITH NO
SIGNIFICANT WEATHER AND/OR OBSTRUCTIONS TO VISIBILITY.

COZ001>005-013-030-031-150500-
...NORTHWEST COLORADO...

CITY           SKY/WX    TMP DP  RH WIND       PRES   REMARKS
CRAIG          FAIR       7   1  76 CALM      30.36R
HAYDEN         FAIR      20  13  74 E8        30.36S WCI  10
MEEKER         FAIR      16  11  80 N6        30.36S WCI   7
RABBIT EARS PA CLOUDY    10   9  92 W13G20    30.25S FOG     WCI  -5
STEAMBOAT SPGS FAIR      17  12  83 E5        30.34F WCI   9
WALDEN         FAIR       1  -4  78 SE6       30.31F WCI -10
$$

COZ006>008-011-150500-
...WEST CENTRAL VALLEYS...

CITY           SKY/WX    TMP DP  RH WIND       PRES   REMARKS
GRAND JUNCTION FAIR      32  14  47 E6        30.35S WCI  26
MONTROSE       FAIR      24  18  77 S7        30.39R WCI  16
EAGLE          FAIR      17   9  70 E5        30.40R WCI  10
RIFLE          FAIR      23   9  55 SE7       30.39R WCI  15
DELTA          FAIR      30  10  44 NE7       30.37R WCI  23
NUCLA          FAIR      32  12  43 S6        30.37R WCI  26
$$

COZ017>023-064>068-150500-
...SOUTHWEST COLORADO...

CITY           SKY/WX    TMP DP  RH WIND       PRES   REMARKS
DURANGO        FAIR      22  19  89 W3        30.23R
CORTEZ         FAIR      30  10  43 S6        30.27R WCI  24
PAGOSA SPRINGS FAIR      23  17  77 CALM      30.26R
TELLURIDE      FAIR      23  11  59 CALM      30.34R
WOLF CREEK PAS FAIR      14  -2  48 NW9G17    30.28S WCI   2
$$

COZ009-010-012-014-032>034-037-058>063-150500-
...CENTRAL COLORADO...

CITY           SKY/WX    TMP DP  RH WIND       PRES   REMARKS
ASPEN          FAIR      16   6  65 S6        30.34R WCI   7
BUENA VISTA    FAIR      24   6  47 NW25      30.24S WCI   7
COPPER MTN     NOT AVBL
BERTHOUD PASS  FAIR       1  -9  60 NW23      30.20R WCI -21
COTTONWOOD PAS FAIR      27   1  33 SE12      30.21F WCI  16
GUNNISON       FAIR      18   7  62 N8        30.32R WCI   8
KREMMLING      FAIR      18  10  73 CALM      30.37R
LEADVILLE      FAIR       6   2  83 NE10      30.28R WCI  -9
MONARCH PASS   FAIR       9   1  72 W21       30.33S WCI -11
SALIDA         FAIR      28   6  39 NW7G21    30.35R WCI  21
SUNLIGHT       FAIR      12   3  67 N7        30.36R WCI   2
WILKERSON PASS FAIR      12  -4  48 N9        30.20F WCI   0
$$

COZ069>075-150500-
...SAN LUIS VALLEY/SANGRE DE CRISTO MOUNTAINS...

CITY           SKY/WX    TMP DP  RH WIND       PRES   REMARKS
ALAMOSA        FAIR       9   6  88 W3        30.25R
DEL NORTE      FAIR      19  10  69 W9        30.26R WCI   8
LA VETA PASS   FAIR      16  10  79 SW14        N/A  WCI   1
SAGUACHE       FAIR      25  12  58 N10       30.26R WCI  15
$$

COZ035-036-038>040-150500-
...NORTHERN COLORADO FRONT RANGE...

CITY           SKY/WX    TMP DP  RH WIND       PRES   REMARKS
DENVER INTL AP FAIR      23  14  68 S8        30.23F WCI  14
DMNS CITY PARK NOT AVBL
AURORA         CLEAR     20  17  86 S8        30.23F WCI  11
FRONT RANGE AP FAIR      20  15  84 S6        30.24F WCI  12
ERIE MUNI ARPT FAIR      25  21  83 CALM      30.29S
BOULDER MUN AP FAIR      30  19  64 CALM      30.22F
CENTENNIAL     FAIR      22  16  78 S7        30.23F WCI  13
BROOMFIELD     PTCLDY    28  23  80 S7        30.23F WCI  21
FORT COLLINS   FAIR      27  20  75 SW5       30.23S WCI  22
LONGMONT       FAIR      23  18  80 CALM      30.25S
$$

COZ041-046-047-076>085-087-088-150500-
...PIKES PEAK/PALMER DIVIDE AND SOUTHERN FOOTHILLS...

CITY           SKY/WX    TMP DP  RH WIND       PRES   REMARKS
COLO. SPRINGS  FAIR      25  19  78 CALM      30.26S
A. F. ACADEMY  FAIR      16  12  84 N5        30.23S WCI   9
SCHRIEVER AFB  FAIR      22  17  79 NW5       30.26S WCI  16
CHEYENNE MTN   MOCLDY    25  23  93 S7        30.18S WCI  17
ELLICOTT         N/A    N/A N/A N/A CALM      30.24S
FALCON         FAIR      20  14  75 NW7       30.23F WCI  12
FORT CARSON    CLOUDY    27  25  93 S7        30.25S WCI  19
LIMON          FAIR      17  15  92 NW12      30.23F WCI   4
MONUMENT HILL  FAIR      14  10  85 SW8       30.23F WCI   3
CANON CITY     CLOUDY    32  30  93 W3        30.28S
WALSENBURG     CLOUDY    30  28  93 CALM      30.27S
TRINIDAD       CLOUDY    29  27  92 SW3       30.29R
$$

COZ042>045-048>051-090-091-150500-
...NORTHEAST COLORADO...

CITY           SKY/WX    TMP DP  RH WIND       PRES   REMARKS
GREELEY ARPT   FAIR      21  14  74 CALM      30.24S
AKRON          FAIR      18  13  80 W8        30.22F WCI   8
BURLINGTON     FAIR      20  14  77 NW10      30.25R WCI   9
WRAY           FAIR      23  18  80 NW9       30.24F WCI  13
YUMA           FAIR      18  12  79 W8        30.24S WCI   7
STERLING       FAIR      21  18  86 CALM      30.24S
HOLYOKE        FAIR      25  18  74 W8        30.23S WCI  16
FORT MORGAN    FAIR      21  13  72 N7        30.24F WCI  12
$$

COZ086-089-092>099-150500-
...SOUTHEAST COLORADO...

CITY           SKY/WX    TMP DP  RH WIND       PRES   REMARKS
PUEBLO         CLOUDY    26  22  84 W5        30.30R WCI  20
LA JUNTA       FAIR      27  22  81 W10       30.30R WCI  17
LAMAR          FAIR      22  17  81 W3        30.29R
SPRINGFIELD      N/A     20  19  96 W8        30.28R WCI  10
$$




USA.gov is the U.S. government's official web portal to all federal, state and local government web resources and services.